| time (UTC) | temp F | wind direction | speed MPH | gust MPH | rain 1hr in | rain 24hr in | rain mn in | humidity % | barometer mb |
| 20260503220900 | 61 | 44 | 3.0 | 6.0 | 0.00 | 0.33 | 0.33 | 30 | 1013.3 |
| 20260503220353 | 61 | 139 | 2.0 | 8.0 | 0.01 | 0.33 | 0.33 | 31 | 1013.3 |
| 20260503220042 | 60 | 5 | 2.0 | 8.0 | 0.01 | 0.33 | 0.33 | 30 | 1013.8 |
| 20260503215842 | 61 | 355 | 5.0 | 8.0 | 0.01 | 0.33 | 0.33 | 29 | 1013.4 |
| 20260503215414 | 61 | 335 | 4.0 | 7.0 | 0.01 | 0.33 | 0.33 | 30 | 1013.5 |
| 20260503214925 | 61 | 22 | 3.0 | 7.0 | 0.01 | 0.33 | 0.33 | 29 | 1013.5 |
| 20260503214553 | 61 | 209 | 1.0 | 8.0 | 0.01 | 0.33 | 0.33 | 31 | 1014.0 |
| 20260503214352 | 61 | 119 | 3.0 | 10.0 | 0.01 | 0.33 | 0.33 | 30 | 1013.4 |
| 20260503213904 | 61 | 254 | 4.0 | 10.0 | 0.01 | 0.33 | 0.33 | 30 | 1013.4 |
| 20260503213334 | 61 | 52 | 2.0 | 7.0 | 0.01 | 0.33 | 0.33 | 29 | 1013.4 |
| 20260503213048 | 61 | 334 | 3.0 | 7.0 | 0.01 | 0.33 | 0.33 | 29 | 1013.9 |
| 20260503212847 | 61 | 360 | 3.0 | 7.0 | 0.01 | 0.33 | 0.33 | 30 | 1013.3 |
| 20260503212339 | 61 | 156 | 4.0 | 7.0 | 0.01 | 0.33 | 0.33 | 30 | 1013.4 |
| 20260503211912 | 61 | 280 | 2.0 | 8.0 | 0.05 | 0.33 | 0.33 | 30 | 1013.5 |
| 20260503211544 | 60 | 138 | 2.0 | 8.0 | 0.05 | 0.33 | 0.33 | 30 | 1014.0 |
| 20260503211342 | 61 | 78 | 4.0 | 11.0 | 0.05 | 0.33 | 0.33 | 29 | 1013.5 |
| 20260503210835 | 62 | 68 | 3.0 | 11.0 | 0.05 | 0.33 | 0.33 | 29 | 1013.5 |
| 20260503210348 | 62 | 316 | 2.0 | 8.0 | 0.04 | 0.32 | 0.32 | 29 | 1013.4 |
| 20260503210039 | 61 | 334 | 3.0 | 8.0 | 0.04 | 0.32 | 0.32 | 29 | 1014.0 |
| 20260503205837 | 62 | 301 | 3.0 | 8.0 | 0.04 | 0.32 | 0.32 | 30 | 1013.5 |
| 20260503205350 | 61 | 284 | 2.0 | 7.0 | 0.04 | 0.32 | 0.32 | 30 | 1013.6 |
| 20260503204902 | 61 | 140 | 3.0 | 7.0 | 0.04 | 0.32 | 0.32 | 29 | 1013.7 |
| 20260503204555 | 61 | 250 | 2.0 | 7.0 | 0.04 | 0.32 | 0.32 | 29 | 1014.1 |
| 20260503204354 | 62 | 265 | 2.0 | 7.0 | 0.04 | 0.32 | 0.32 | 28 | 1013.7 |
| 20260503203846 | 63 | 78 | 3.0 | 7.0 | 0.04 | 0.32 | 0.32 | 29 | 1013.8 |
| 20260503203336 | 62 | 49 | 2.0 | 12.0 | 0.04 | 0.32 | 0.32 | 29 | 1013.7 |
| 20260503203105 | 61 | 355 | 1.0 | 12.0 | 0.04 | 0.32 | 0.32 | 30 | 1014.3 |
| 20260503202848 | 61 | 303 | 2.0 | 12.0 | 0.04 | 0.32 | 0.32 | 29 | 1013.8 |
| 20260503202345 | 61 | 32 | 4.0 | 11.0 | 0.03 | 0.30 | 0.30 | 29 | 1014.0 |
| 20260503201855 | 62 | 82 | 3.0 | 6.0 | 0.01 | 0.28 | 0.28 | 29 | 1013.8 |
| 20260503201548 | 62 | 283 | 2.0 | 9.0 | 0.01 | 0.28 | 0.28 | 28 | 1014.4 |
| 20260503201346 | 62 | 277 | 3.0 | 9.0 | 0.01 | 0.28 | 0.28 | 30 | 1013.9 |
| 20260503200857 | 62 | 61 | 4.0 | 10.0 | 0.01 | 0.28 | 0.28 | 30 | 1013.9 |
| 20260503200410 | 63 | 299 | 3.0 | 8.0 | 0.01 | 0.28 | 0.28 | 30 | 1013.9 |
| 20260503200059 | 62 | 29 | 4.0 | 9.0 | 0.01 | 0.28 | 0.28 | 30 | 1014.5 |
| 20260503195858 | 62 | 176 | 2.0 | 6.0 | 0.02 | 0.28 | 0.28 | 29 | 1014.2 |
| 20260503195350 | 62 | 325 | 4.0 | 7.0 | 0.02 | 0.28 | 0.28 | 29 | 1014.1 |
| 20260503194842 | 60 | 46 | 4.0 | 7.0 | 0.02 | 0.28 | 0.28 | 31 | 1014.2 |
| 20260503194540 | 59 | 9 | 3.0 | 7.0 | 0.02 | 0.28 | 0.28 | 30 | 1014.6 |
| 20260503194336 | 60 | 60 | 3.0 | 7.0 | 0.02 | 0.28 | 0.28 | 30 | 1014.2 |
| 20260503193849 | 61 | 257 | 2.0 | 8.0 | 0.02 | 0.28 | 0.28 | 31 | 1014.2 |
| 20260503193341 | 60 | 187 | 2.0 | 8.0 | 0.02 | 0.28 | 0.28 | 31 | 1014.3 |
| 20260503193054 | 60 | 205 | 3.0 | 11.0 | 0.02 | 0.28 | 0.28 | 30 | 1014.9 |
| 20260503192853 | 61 | 199 | 5.0 | 11.0 | 0.02 | 0.28 | 0.28 | 29 | 1014.5 |
| 20260503192426 | 62 | 315 | 5.0 | 12.0 | 0.01 | 0.27 | 0.27 | 29 | 1014.5 |
| 20260503191853 | 63 | 55 | 5.0 | 12.0 | 0.01 | 0.27 | 0.27 | 28 | 1014.6 |
| 20260503191546 | 63 | 355 | 4.0 | 12.0 | 0.01 | 0.27 | 0.27 | 29 | 1014.9 |
| 20260503191346 | 63 | 5 | 4.0 | 7.0 | 0.01 | 0.27 | 0.27 | 29 | 1014.5 |
| 20260503190838 | 63 | 284 | 4.0 | 8.0 | 0.01 | 0.27 | 0.27 | 28 | 1014.6 |
| 20260503190352 | 61 | 355 | 3.0 | 8.0 | 0.01 | 0.27 | 0.27 | 31 | 1014.5 |
| 20260503190022 | 61 | 242 | 3.0 | 8.0 | 0.00 | 0.26 | 0.26 | 31 | 1015.2 |
| 20260503185921 | 61 | 283 | 5.0 | 7.0 | 0.00 | 0.26 | 0.26 | 30 | 1014.7 |
| 20260503185347 | 60 | 260 | 4.0 | 9.0 | 0.00 | 0.26 | 0.26 | 31 | 1014.7 |
| 20260503184839 | 60 | 326 | 3.0 | 8.0 | 0.00 | 0.26 | 0.26 | 30 | 1014.8 |
| 20260503184554 | 61 | 240 | 3.0 | 8.0 | 0.00 | 0.26 | 0.26 | 29 | 1015.4 |
| 20260503184353 | 61 | 44 | 4.0 | 8.0 | 0.00 | 0.26 | 0.26 | 30 | 1014.9 |
| 20260503183844 | 61 | 342 | 3.0 | 7.0 | 0.00 | 0.26 | 0.26 | 30 | 1014.9 |
| 20260503183339 | 62 | 331 | 2.0 | 6.0 | 0.00 | 0.26 | 0.26 | 30 | 1014.9 |
| 20260503183011 | 61 | 281 | 3.0 | 6.0 | 0.00 | 0.26 | 0.26 | 29 | 1015.5 |
| 20260503182911 | 63 | 236 | 2.0 | 7.0 | 0.00 | 0.26 | 0.26 | 29 | 1015.0 |
| 20260503182343 | 61 | 329 | 3.0 | 9.0 | 0.00 | 0.26 | 0.26 | 29 | 1015.0 |
| 20260503181836 | 61 | 90 | 3.0 | 9.0 | 0.00 | 0.26 | 0.26 | 32 | 1014.9 |
| 20260503181600 | 61 | 344 | 5.0 | 8.0 | 0.00 | 0.26 | 0.26 | 29 | 1015.5 |
| 20260503180905 | 61 | 300 | 3.0 | 7.0 | 0.00 | 0.26 | 0.26 | 30 | 1015.1 |
| 20260503180357 | 60 | 239 | 3.0 | 7.0 | 0.00 | 0.26 | 0.26 | 33 | 1014.9 |
| 20260503180047 | 59 | 260 | 3.0 | 6.0 | 0.00 | 0.26 | 0.26 | 29 | 1015.5 |
| 20260503175846 | 60 | 67 | 4.0 | 7.0 | 0.00 | 0.26 | 0.26 | 31 | 1015.1 |
| 20260503175338 | 58 | 296 | 4.0 | 7.0 | 0.02 | 0.26 | 0.26 | 30 | 1015.3 |
| 20260503174851 | 58 | 306 | 2.0 | 12.0 | 0.04 | 0.26 | 0.26 | 31 | 1015.3 |
| 20260503174510 | 59 | 345 | 2.0 | 12.0 | 0.05 | 0.26 | 0.26 | 30 | 1015.8 |
| 20260503174403 | 60 | 20 | 3.0 | 12.0 | 0.05 | 0.26 | 0.26 | 30 | 1015.4 |
| 20260503173914 | 59 | 69 | 3.0 | 8.0 | 0.05 | 0.26 | 0.26 | 32 | 1015.5 |
| 20260503173407 | 58 | 329 | 2.0 | 9.0 | 0.05 | 0.26 | 0.26 | 32 | 1015.4 |
| 20260503173051 | 57 | 136 | 4.0 | 9.0 | 0.05 | 0.26 | 0.26 | 33 | 1015.9 |
| 20260503172838 | 57 | 35 | 2.0 | 8.0 | 0.05 | 0.26 | 0.26 | 32 | 1015.5 |
| 20260503172350 | 58 | 266 | 4.0 | 11.0 | 0.06 | 0.26 | 0.26 | 32 | 1015.6 |
| 20260503171843 | 58 | 251 | 4.0 | 11.0 | 0.06 | 0.26 | 0.26 | 31 | 1015.6 |
| 20260503171540 | 58 | 276 | 2.0 | 7.0 | 0.06 | 0.26 | 0.26 | 31 | 1016.1 |
| 20260503171335 | 58 | 115 | 3.0 | 9.0 | 0.06 | 0.26 | 0.26 | 32 | 1015.8 |
| 20260503170847 | 58 | 344 | 4.0 | 9.0 | 0.06 | 0.26 | 0.26 | 34 | 1015.8 |
| 20260503170342 | 56 | 30 | 327.0 | 327.0 | 0.00 | 0.00 | 0.26 | 34 | 1015.7 |
| 20260503150850 | 52 | 344 | 2.0 | 6.0 | 0.03 | 0.05 | 0.05 | 43 | 1017.1 |
| 20260503150343 | 51 | 54 | 1.0 | 9.0 | 0.03 | 0.05 | 0.05 | 48 | 1017.2 |
| 20260503081532 | 36 | 33 | 0.0 | 0.0 | 0.00 | 0.00 | 0.00 | 89 | 1015.7 |
| 20260503071526 | 36 | 33 | 0.0 | 0.0 | 0.00 | 0.00 | 0.00 | 89 | 1015.2 |
| 20260503054518 | 35 | 33 | 0.0 | 0.0 | 0.00 | 0.00 | 0.00 | 87 | 1015.0 |
| 20260503053017 | 35 | 33 | 0.0 | 0.0 | 0.00 | 0.00 | 0.00 | 86 | 1015.0 |
| 20260503051512 | 36 | 33 | 0.0 | 0.0 | 0.00 | 0.00 | 0.00 | 84 | 1015.1 |
| 20260503050010 | 37 | 33 | 0.0 | 0.0 | 0.00 | 0.00 | 0.00 | 83 | 1015.1 |
| 20260503045348 | 37 | 33 | 0.0 | 0.0 | 0.00 | 0.00 | 0.00 | 82 | 1014.7 |
| 20260503044839 | 38 | 33 | 0.0 | 0.0 | 0.00 | 0.00 | 0.00 | 82 | 1014.8 |
| 20260503044604 | 37 | 33 | 0.0 | 0.0 | 0.00 | 0.00 | 0.00 | 82 | 1015.1 |
| 20260503044353 | 38 | 33 | 0.0 | 0.0 | 0.00 | 0.00 | 0.00 | 81 | 1014.7 |
| 20260503043844 | 38 | 33 | 0.0 | 0.0 | 0.00 | 0.00 | 0.00 | 80 | 1014.7 |
| 20260503043336 | 38 | 33 | 0.0 | 0.0 | 0.00 | 0.00 | 0.00 | 80 | 1014.8 |
| 20260503043055 | 38 | 33 | 0.0 | 0.0 | 0.00 | 0.00 | 0.00 | 79 | 1015.1 |
| 20260503042849 | 39 | 33 | 0.0 | 0.0 | 0.00 | 0.00 | 0.00 | 79 | 1014.7 |
| 20260503042342 | 39 | 33 | 0.0 | 0.0 | 0.00 | 0.00 | 0.00 | 78 | 1014.7 |
| 20260503041529 | 39 | 33 | 0.0 | 0.0 | 0.00 | 0.00 | 0.00 | 78 | 1015.1 |
| 20260503041428 | 39 | 33 | 0.0 | 0.0 | 0.00 | 0.00 | 0.00 | 77 | 1014.8 |
| 20260503040836 | 40 | 33 | 0.0 | 0.0 | 0.00 | 0.00 | 0.00 | 76 | 1014.8 |
| 20260503040351 | 40 | 33 | 0.0 | 1.0 | 0.00 | 0.00 | 0.00 | 75 | 1014.7 |
| 20260503040047 | 40 | 33 | 0.0 | 1.0 | 0.00 | 0.00 | 0.00 | 74 | 1015.1 |
| 20260503035843 | 41 | 33 | 0.0 | 1.0 | 0.00 | 0.00 | 0.00 | 74 | 1014.8 |
| 20260503035337 | 41 | 33 | 0.0 | 0.0 | 0.00 | 0.00 | 0.00 | 74 | 1014.8 |
| 20260503034849 | 41 | 33 | 327.0 | 327.0 | 0.00 | 0.00 | 0.00 | 73 | 1014.6 |
| 20260503034542 | 41 | 33 | 0.0 | 2.0 | 0.00 | 0.00 | 0.00 | 73 | 1015.1 |
| 20260503034341 | 41 | 33 | 0.0 | 2.0 | 0.00 | 0.00 | 0.00 | 73 | 1014.7 |
| 20260503033853 | 42 | 33 | 0.0 | 1.0 | 0.00 | 0.00 | 0.00 | 71 | 1014.7 |
| 20260503033344 | 42 | 33 | 0.0 | 1.0 | 0.00 | 0.00 | 0.00 | 70 | 1014.6 |
| 20260503033109 | 42 | 33 | 0.0 | 1.0 | 0.00 | 0.00 | 0.00 | 70 | 1015.0 |
| 20260503032857 | 42 | 33 | 0.0 | 1.0 | 0.00 | 0.00 | 0.00 | 70 | 1014.6 |
| 20260503032348 | 43 | 33 | 0.0 | 1.0 | 0.00 | 0.00 | 0.00 | 68 | 1014.7 |
| 20260503031840 | 43 | 33 | 0.0 | 2.0 | 0.00 | 0.00 | 0.00 | 68 | 1014.7 |
| 20260503031557 | 43 | 33 | 0.0 | 2.0 | 0.00 | 0.00 | 0.00 | 67 | 1015.1 |
| 20260503031354 | 43 | 33 | 0.0 | 2.0 | 0.00 | 0.00 | 0.00 | 67 | 1014.7 |
| 20260503030846 | 43 | 33 | 0.0 | 1.0 | 0.00 | 0.00 | 0.00 | 67 | 1014.8 |
| 20260503030336 | 43 | 33 | 0.0 | 0.0 | 0.00 | 0.00 | 0.00 | 67 | 1014.8 |
| 20260503030052 | 43 | 33 | 0.0 | 1.0 | 0.00 | 0.00 | 0.00 | 66 | 1015.1 |
| 20260503025850 | 44 | 33 | 0.0 | 1.0 | 0.00 | 0.00 | 0.00 | 66 | 1014.8 |
| 20260503025342 | 44 | 33 | 0.0 | 2.0 | 0.00 | 0.00 | 0.00 | 65 | 1014.8 |
| 20260503024855 | 44 | 33 | 0.0 | 2.0 | 0.00 | 0.00 | 0.00 | 65 | 1014.9 |
| 20260503024548 | 44 | 335 | 0.0 | 1.0 | 0.00 | 0.00 | 0.00 | 64 | 1015.3 |
| 20260503024346 | 44 | 335 | 0.0 | 1.0 | 0.00 | 0.00 | 0.00 | 65 | 1014.9 |
| 20260503023839 | 45 | 335 | 0.0 | 1.0 | 0.00 | 0.00 | 0.00 | 64 | 1014.9 |
| 20260503023059 | 45 | 335 | 0.0 | 5.0 | 0.00 | 0.00 | 0.00 | 62 | 1015.2 |
| 20260503022846 | 45 | 335 | 3.0 | 5.0 | 0.00 | 0.00 | 0.00 | 62 | 1015.0 |
| 20260503022339 | 45 | 346 | 1.0 | 3.0 | 0.00 | 0.00 | 0.00 | 61 | 1014.9 |
| 20260503021911 | 46 | 26 | 1.0 | 4.0 | 0.00 | 0.00 | 0.00 | 61 | 1014.9 |
| 20260503021549 | 45 | 68 | 0.0 | 4.0 | 0.00 | 0.00 | 0.00 | 61 | 1015.2 |
| 20260503021343 | 46 | 68 | 2.0 | 4.0 | 0.00 | 0.00 | 0.00 | 60 | 1014.9 |
| 20260503020836 | 46 | 315 | 0.0 | 3.0 | 0.00 | 0.00 | 0.00 | 60 | 1014.8 |
| 20260503020348 | 46 | 314 | 1.0 | 3.0 | 0.00 | 0.00 | 0.00 | 59 | 1014.7 |
| 20260503020039 | 46 | 316 | 0.0 | 2.0 | 0.00 | 0.00 | 0.00 | 59 | 1015.1 |
| 20260503015838 | 46 | 316 | 1.0 | 2.0 | 0.00 | 0.00 | 0.00 | 58 | 1014.8 |
| 20260503015350 | 47 | 316 | 0.0 | 3.0 | 0.00 | 0.00 | 0.00 | 58 | 1014.8 |
| 20260503014847 | 47 | 316 | 2.0 | 3.0 | 0.00 | 0.00 | 0.00 | 57 | 1014.8 |
| 20260503014538 | 46 | 355 | 0.0 | 3.0 | 0.00 | 0.00 | 0.00 | 57 | 1015.0 |
| 20260503014338 | 47 | 336 | 1.0 | 3.0 | 0.00 | 0.00 | 0.00 | 57 | 1014.7 |
| 20260503013352 | 47 | 36 | 1.0 | 5.0 | 0.00 | 0.00 | 0.00 | 57 | 1014.5 |
| 20260503013047 | 47 | 10 | 2.0 | 5.0 | 0.00 | 0.00 | 0.00 | 56 | 1014.7 |
| 20260503012846 | 47 | 342 | 3.0 | 5.0 | 0.00 | 0.00 | 0.00 | 56 | 1014.4 |
| 20260503012339 | 47 | 41 | 1.0 | 4.0 | 0.00 | 0.00 | 0.00 | 57 | 1014.4 |
| 20260503011912 | 48 | 62 | 1.0 | 7.0 | 0.00 | 0.00 | 0.00 | 57 | 1014.3 |
| 20260503011558 | 47 | 35 | 3.0 | 7.0 | 0.00 | 0.00 | 0.00 | 56 | 1014.5 |
| 20260503011344 | 48 | 59 | 2.0 | 7.0 | 0.00 | 0.00 | 0.00 | 56 | 1014.2 |
| 20260503010835 | 48 | 305 | 1.0 | 3.0 | 0.00 | 0.00 | 0.00 | 55 | 1014.1 |
| 20260503010009 | 48 | 360 | 2.0 | 4.0 | 0.00 | 0.00 | 0.00 | 55 | 1014.2 |
| 20260503005908 | 48 | 294 | 1.0 | 7.0 | 0.00 | 0.00 | 0.00 | 56 | 1014.0 |
| 20260503005339 | 48 | 355 | 3.0 | 7.0 | 0.00 | 0.00 | 0.00 | 55 | 1013.9 |
| 20260503004851 | 48 | 70 | 2.0 | 3.0 | 0.00 | 0.00 | 0.00 | 55 | 1013.8 |
| 20260503004507 | 48 | 334 | 0.0 | 5.0 | 0.00 | 0.00 | 0.00 | 55 | 1014.0 |
| 20260503004404 | 49 | 334 | 0.0 | 5.0 | 0.00 | 0.00 | 0.00 | 55 | 1013.6 |
| 20260503003854 | 49 | 338 | 3.0 | 5.0 | 0.00 | 0.00 | 0.00 | 54 | 1013.5 |
| 20260503003346 | 49 | 305 | 1.0 | 5.0 | 0.00 | 0.00 | 0.00 | 54 | 1013.4 |
| 20260503003053 | 49 | 277 | 1.0 | 3.0 | 0.00 | 0.00 | 0.00 | 53 | 1013.5 |
| 20260503002839 | 49 | 339 | 2.0 | 3.0 | 0.00 | 0.00 | 0.00 | 54 | 1013.3 |
| 20260503002411 | 49 | 46 | 1.0 | 4.0 | 0.00 | 0.00 | 0.00 | 54 | 1013.2 |
| 20260503001842 | 50 | 35 | 2.0 | 3.0 | 0.00 | 0.00 | 0.00 | 54 | 1013.2 |
| 20260503001535 | 49 | 76 | 1.0 | 3.0 | 0.00 | 0.00 | 0.00 | 54 | 1013.5 |
| 20260503001334 | 50 | 306 | 1.0 | 3.0 | 0.00 | 0.00 | 0.00 | 54 | 1013.1 |
| 20260503000848 | 50 | 24 | 1.0 | 3.0 | 0.00 | 0.00 | 0.00 | 53 | 1013.1 |
| 20260503000341 | 50 | 39 | 1.0 | 8.0 | 0.00 | 0.00 | 0.00 | 53 | 1013.0 |
| 20260502235849 | 50 | 24 | 4.0 | 8.0 | 0.00 | 0.00 | 0.00 | 52 | 1012.9 |
| 20260502235342 | 50 | 36 | 1.0 | 3.0 | 0.00 | 0.00 | 0.00 | 52 | 1012.8 |
| 20260502234855 | 51 | 30 | 1.0 | 4.0 | 0.00 | 0.00 | 0.00 | 51 | 1012.8 |
| 20260502234549 | 50 | 29 | 1.0 | 4.0 | 0.00 | 0.00 | 0.00 | 51 | 1013.0 |
| 20260502234348 | 51 | 72 | 2.0 | 4.0 | 0.00 | 0.00 | 0.00 | 51 | 1012.7 |
| 20260502233844 | 51 | 48 | 3.0 | 7.0 | 0.00 | 0.00 | 0.00 | 51 | 1012.6 |
| 20260502233057 | 51 | 18 | 0.0 | 5.0 | 0.00 | 0.00 | 0.00 | 50 | 1012.7 |
| 20260502232852 | 51 | 18 | 1.0 | 5.0 | 0.00 | 0.00 | 0.00 | 50 | 1012.5 |
| 20260502232345 | 51 | 42 | 3.0 | 5.0 | 0.00 | 0.00 | 0.00 | 50 | 1012.4 |
| 20260502231837 | 52 | 328 | 2.0 | 5.0 | 0.00 | 0.00 | 0.00 | 51 | 1012.4 |
| 20260502231550 | 51 | 30 | 1.0 | 3.0 | 0.00 | 0.00 | 0.00 | 51 | 1012.6 |
| 20260502231350 | 52 | 30 | 1.0 | 0.0 | 0.00 | 0.00 | 0.00 | 51 | 1012.3 |
| 20260502230841 | 52 | 63 | 1.0 | 2.0 | 0.00 | 0.00 | 0.00 | 51 | 1012.4 |
| 20260502230415 | 52 | 63 | 0.0 | 3.0 | 0.00 | 0.00 | 0.00 | 51 | 1012.4 |
| 20260502230044 | 52 | 63 | 1.0 | 5.0 | 0.00 | 0.00 | 0.00 | 50 | 1012.5 |
| 20260502225843 | 52 | 18 | 1.0 | 5.0 | 0.00 | 0.01 | 0.00 | 49 | 1012.3 |
| 20260502225356 | 52 | 64 | 3.0 | 5.0 | 0.00 | 0.01 | 0.00 | 49 | 1012.3 |
| 20260502224907 | 52 | 34 | 2.0 | 4.0 | 0.00 | 0.01 | 0.00 | 49 | 1012.3 |
| 20260502224539 | 52 | 337 | 2.0 | 4.0 | 0.00 | 0.01 | 0.00 | 47 | 1012.4 |
| 20260502224339 | 53 | 347 | 3.0 | 4.0 | 0.00 | 0.01 | 0.00 | 47 | 1012.2 |
| 20260502223851 | 53 | 308 | 1.0 | 5.0 | 0.00 | 0.01 | 0.00 | 47 | 1012.3 |
| 20260502223344 | 53 | 29 | 1.0 | 5.0 | 0.00 | 0.01 | 0.00 | 47 | 1012.2 |
| 20260502223037 | 53 | 55 | 2.0 | 5.0 | 0.00 | 0.01 | 0.00 | 47 | 1012.4 |
| 20260502222837 | 53 | 67 | 2.0 | 5.0 | 0.00 | 0.01 | 0.00 | 47 | 1012.1 |
| 20260502222350 | 53 | 11 | 3.0 | 5.0 | 0.00 | 0.01 | 0.00 | 46 | 1012.1 |
| 20260502221902 | 53 | 5 | 1.0 | 5.0 | 0.00 | 0.01 | 0.00 | 45 | 1012.2 |
| 20260502221555 | 53 | 5 | 1.0 | 7.0 | 0.00 | 0.01 | 0.00 | 45 | 1012.3 |
| 20260502221354 | 54 | 360 | 2.0 | 7.0 | 0.00 | 0.01 | 0.00 | 45 | 1012.1 |